Location: Helsinki
(60.1699°N, 24.9384°E)
Time: 20:41:32
(UTC+02:00)

Transit 2A Rocket - Pass Details

Date: 22 September 2023
Orbit: 593 x 903 km, 66.7° (Epoch: 28 November)

Event Time Altitude Azimuth Distance (km) Brightness Sun altitude
Rises 22:48:22 0° 303° (WNW) 3,097 9.4 -23.5°
Reaches altitude 10° 22:50:50 10° 307° (NW) 2,128 8.3 -23.7°
Maximum altitude 22:55:33 59° 28° (NNE) 744 5.0 -24.1°
Enters shadow 22:56:02 56° 57° (ENE) 766 4.9 -24.1°
Drops below altitude 10° 22:59:57 10° 108° (ESE) 1,978 - -24.4°
Sets 23:02:10 0° 113° (ESE) 2,858 - -24.6°
